Classements 2002
Classements 2004
Classements 2005
Classements 2006
Classements 2007
Classements 2008
Classements 2009
Classements 2010
Classements 2011
Classements 2012
Classements 2013
Classements 2014
Classements 2015
Classements 2016
Classements 2017
Inscrivez-vous en ligne !
Comment envoyer vos classements complets
Mise à jour le 15/12/03 Année Région Courses Inscrites Participants
Super Challenge FSGT 2003 PACA 51 Courses 6726 - 51 Courses
Nom de la Course Distance Date Région Dépt Rentrants
Moutiers les Mauxfaits 10/5 Km 28/12/2003 Pays de Loire 85 244/56
Corrida de Chabris 7.6/3.8 Km 27/12/2003 Centre 36 92/33
Corrida de Noël à Quissac 8 Km 21/12/2003 Langu-Roussillon 30 155
16e Hivernale de Milly 17 Km 14/12/2003 Picardie 60 244
19e Course de Ladrecht 11.3 Km 07/12/2003 Langu-Roussillon 30 429
19e Cross de l'Echo 12/8 Km 30/11/2003 PACA 13 153/29
Maxi Cross de Compiegne 11.4/1 Km 23/11/2003 Picardie 60 341/48
Tour Pédestre du 3e Secteur 7 Km 23/11/2003 PACA 13 203
Maxi Cross de Mantes 13 Km 23/11/2003 Ile de France 78 248
10 Km d'Avensan 10 Km 16/11/2003 Aquitaine 33 187
10e Escapade d'Ensuès 12.5 Km 09/11/2003 PACA 13 336
10 Bornes des 2 Mairies 9.7 Km 09/11/2003 PACA 13 142
16e Foulées du Grand Alès 10 Km 09/11/2003 Langu-Roussillon 30 520
La Foulée des Clairettes 11.8 Km 08/11/2003 Langu-Roussillon 30 106
Semi-marathon de Loriol 21.1/7 Km 02/11/2003 Rhône-Alpes 26 181/142
Ronde de l'Entente 10 Km 02/11/2003 Aquitaine 33 225
Course de Côte de l'Equipement 9/6 Km 02/11/2003 Centre 36 54/46
9e Foulées d'Automne 10 Km 01/11/2003 Langu-Roussillon 30 142
Tour Pédestre de St-Gilles 15 Km 01/11/2003 Langu-Roussillon 30 175
La Croisière des Bons Vins 16/6.5 Km 26/10/2003 Aquitaine 33 271/123
Foulées Mondrainvillaises Toutes 26/10/2003 Basse-Normandie 14 Tous
5e Semi du Val de Fensch 21.1/5 Km 26/10/2003 Lorraine 57 180/77
10 Km de Ledenon 10 Km 26/10/2003 Langu-Roussillon 30 280
10 Km de Tamaris 10 Km 19/10/2003 PACA 83 641
10 Km de Pessac 10 Km 19/10/2003 Aquitaine 33 395
Ronde de Parempuyre 10 Km 19/10/2003 Aquitaine 33 234
Marathon de Vannes 42.195/13 Km 19/10/2003 Bretagne 56 1546/979
13e David Cross 8 Km & 1.5 Km 8/1.5 Km 1/2 19/10/2003 PACA 13 351/21/36
13e David Cross 0.5 Km 0.5 Km 1/2/3 19/10/2003 PACA 13 45/39/16
4e Ronde des Oliviers 10.45 Km 19/10/2003 PACA 13 559
2e Corrida du Primeur 8/4 Km 18/10/2003 Rhône-Alpes 07 33/41
La Foulée des Remparts 13/5.6 Km 18/10/2003 Rhône-Alpes 26 126*61
Semi de la Vallée de l'Homme 21.1 Km 12/10/2003 Aquitaine 24 246
Course des Bories 10 Km 12/10/2003 PACA 13 250
10 Km de Blanquefort 10 Km 12/10/2003 Aquitaine 33 944
10 Km de Lisieux 10 Km 12/10/2003 Basse-Normandie 14 187
10 Km de Bagnols sur Cèze 10 Km 12/10/2003 Lang-Roussillon 30 260
La PersJussienne 11 Km 12/10/2003 Rhône-Alpes 74 329
13e Balade de la Saune 10 Km 12/10/2003 Midi-Pyrénées 31 281
24e Cabro d'Or Toutes 12/10/2003 PACA 13 Tous
Courses des Dragonnades 30/58 Km 05/10/2003 Rhône-Alpes 07 104/17
Foulées de l'Espoir 10 Km 05/10/2003 Aquitaine 33 304
Ronde de St-Mitre Les Remp. 10 Km 05/10/2003 PACA 13 121
Les Foulées Salindroises 11.87 Km 05/10/2003 Lang-Roussillon 30 292
10 Km Le Poinçonnet 10 Km 05/10/2003 Centre 36 206

Organisateurs : Il vous suffit de nous envoyer par E-Mail, les Résultats COMPLETS de votre Épreuve à l'adresse suivante : alain@courirenfrance.com et vos coureurs auront la possibilité de consulter leur classement, 48 heures au plus tard après réception.
Prière de nous préciser SVP le nom de la course, la distance, la date, la région, le N° de département. Merci !
Pour information : Nous publierons seulement la Place, le Nom le Prénom du coureur, le Numéro de Dossard, le Classement dans la catégorie, et le Temps. Par contre, le coureur aura la possibilité de calculer lui-même sa vitesse en utilisant le formulaire prévu à cet effet.

 
Copyright © 1999-2017
Courir en France
Tous droits Réservés